Location: Unspecified
(52.4292°N, 19.3359°E)
Time: 00:04:34
(UTC+02:00)

Altair - Pass Details

Date: 27 May 2024
Orbit: 1502 x 1682 km, 47.2° (Epoch: 19 June)

Event Time Altitude Azimuth Distance (km) Brightness Sun altitude
Rises 14:16:42 0° 279° (W) 4,889 10.4 53.8°
Reaches altitude 10° 14:19:55 10° 275° (W) 3,917 10.1 53.5°
Maximum altitude 14:29:33 53° 203° (SSW) 2,002 10.3 52.5°
Drops below altitude 10° 14:39:14 10° 131° (SE) 3,932 9.7 51.4°
Sets 14:42:28 0° 127° (SE) 4,908 10.1 51.1°
